Weather History for Newport Airport, OR

Change the Weather History Date:

Friday, June 28, 2013

  Actual Average Record
Temperature  
Mean Temperature 62 °F -  
Max Temperature 69 °F 59 °F 71 °F (2003)
Min Temperature 55 °F 50 °F 42 °F (2006)
Degree Days  
Heating Degree Days 3    
Growing Degree Days 12 (Base 50)    
Moisture  
Dew Point 59 °F    
Average Humidity 89    
Maximum Humidity 100    
Minimum Humidity 68    
Precipitation  
Precipitation 0.00 in - - ()
Sea Level Pressure  
Sea Level Pressure 30.16 in    
Wind  
Wind Speed 2 mph (WSW)    
Max Wind Speed 8 mph    
Max Gust Speed -    
Visibility 7 miles    
Events Fog    
Averages and records for this station are not official NWS values.
T = Trace of Precipitation, MM = Missing Value Source: NWS Daily Summary

Daily Weather History Graph

Daily Weather History Graph

Search for Another Location

Airport:

Trip Planner

Search our weather history database for the weather conditions in past years. The results will help you decide how hot, cold, wet, or windy it might be!

Date:

Astronomy

Jun. 28, 2013 Rise Set
Actual Time 5:33 AM PDT 9:05 PM PDT
Civil Twilight 4:56 AM PDT 9:42 PM PDT
Nautical Twilight 4:08 AM PDT 10:30 PM PDT
Astronomical Twilight 3:05 AM PDT 11:33 PM PDT
Moon No Moon Rise 12:03 PM PDT (6/28)
Length of Visible Light 16h 45m
Length of Day
15h 31m
Waning Gibbous, 65% of the Moon is Illuminated
Jun 28
Waning Gibbous
Jun 29
Last Quarter
Jul 8
New
Jul 15
First Quarter
Jul 22
Full

Hourly Weather History & Observations

Time (PDT) Temp. Dew Point Humidity Pressure Visibility Wind Dir Wind Speed Gust Speed Precip Events Conditions
12:15 AM 59.0 °F 57.2 °F 94% 30.20 in 0.2 mi Calm Calm - N/A Fog Fog
12:35 AM 57.2 °F 57.2 °F 100% 30.19 in 0.5 mi Calm Calm - N/A Fog Fog
12:55 AM 57.2 °F 57.2 °F 100% 30.20 in 0.5 mi Calm Calm - N/A Fog Fog
1:15 AM 57.2 °F 57.2 °F 100% 30.19 in 0.5 mi Calm Calm - N/A Fog Fog
1:35 AM 57.2 °F 57.2 °F 100% 30.19 in 0.5 mi Calm Calm - N/A Fog Fog
1:55 AM 55.4 °F 55.4 °F 100% 30.19 in 0.2 mi Calm Calm - N/A Fog Fog
2:15 AM 55.4 °F 55.4 °F 100% 30.19 in 0.5 mi Calm Calm - N/A Fog Fog
2:35 AM 55.4 °F 55.4 °F 100% 30.18 in 0.5 mi Calm Calm - N/A Fog Fog
2:55 AM 55.4 °F 55.4 °F 100% 30.18 in 0.2 mi Calm Calm - N/A Fog Fog
3:15 AM 55.4 °F 55.4 °F 100% 30.17 in 0.2 mi Calm Calm - N/A Fog Fog
3:35 AM 55.4 °F 55.4 °F 100% 30.16 in 0.2 mi Calm Calm - N/A Fog Fog
3:55 AM 55.4 °F 55.4 °F 100% 30.16 in 0.5 mi Calm Calm - N/A Fog Fog
4:15 AM 55.4 °F 55.4 °F 100% 30.16 in 0.2 mi Calm Calm - N/A Fog Fog
4:35 AM 55.4 °F 55.4 °F 100% 30.16 in 0.2 mi Calm Calm - N/A Fog Fog
4:55 AM 55.4 °F 55.4 °F 100% 30.16 in 0.2 mi Calm Calm - N/A Fog Fog
5:55 AM 57.2 °F 55.4 °F 94% 30.16 in 0.2 mi Calm Calm - N/A Fog Fog
6:15 AM 57.2 °F 55.4 °F 94% 30.16 in 0.2 mi Calm Calm - N/A Fog Fog
6:35 AM 57.2 °F 57.2 °F 100% 30.16 in 0.2 mi Calm Calm - N/A Fog Fog
6:55 AM 57.2 °F 57.2 °F 100% 30.16 in 0.2 mi Calm Calm - N/A Fog Fog
7:15 AM 59.0 °F 59.0 °F 100% 30.16 in 0.8 mi Calm Calm - N/A   Overcast
7:35 AM 60.8 °F 59.0 °F 94% 30.15 in 10.0 mi East 4.6 mph - N/A   Scattered Clouds
7:55 AM 60.8 °F 60.8 °F 100% 30.15 in 10.0 mi East 3.5 mph - N/A   Clear
8:15 AM 60.8 °F 60.8 °F 100% 30.15 in 10.0 mi East 3.5 mph - N/A   Clear
8:35 AM 62.6 °F 62.6 °F 100% 30.15 in 10.0 mi East 3.5 mph - N/A   Clear
8:55 AM 64.4 °F 62.6 °F 94% 30.15 in 10.0 mi Calm Calm - N/A   Clear
9:15 AM 66.2 °F 64.4 °F 94% 30.15 in 7.0 mi Calm Calm - N/A   Clear
9:35 AM 68.0 °F 62.6 °F 83% 30.15 in 5.0 mi West 4.6 mph - N/A   Clear
9:55 AM 68.0 °F 62.6 °F 83% 30.15 in 10.0 mi WSW 4.6 mph - N/A   Clear
10:15 AM 64.4 °F 60.8 °F 88% 30.16 in 10.0 mi WSW 3.5 mph - N/A   Clear
10:35 AM 66.2 °F 60.8 °F 83% 30.16 in 10.0 mi WSW 4.6 mph - N/A   Clear
10:55 AM 66.2 °F 60.8 °F 83% 30.17 in 10.0 mi WSW 4.6 mph - N/A   Clear
11:15 AM 66.2 °F 60.8 °F 83% 30.17 in 10.0 mi WSW 4.6 mph - N/A   Clear
11:35 AM 66.2 °F 60.8 °F 83% 30.16 in 10.0 mi WSW 3.5 mph - N/A   Clear
11:55 AM 66.2 °F 60.8 °F 83% 30.17 in 10.0 mi West 4.6 mph - N/A   Clear
12:15 PM 66.2 °F 60.8 °F 83% 30.17 in 10.0 mi West 5.8 mph - N/A   Clear
12:35 PM 68.0 °F 60.8 °F 78% 30.17 in 10.0 mi West 5.8 mph - N/A   Clear
12:55 PM 68.0 °F 60.8 °F 78% 30.17 in 10.0 mi West 5.8 mph - N/A   Clear
1:15 PM 69.8 °F 60.8 °F 73% 30.17 in 10.0 mi SW 4.6 mph - N/A   Clear
1:35 PM 68.0 °F 60.8 °F 78% 30.17 in 10.0 mi West 6.9 mph - N/A   Clear
1:55 PM 68.0 °F 60.8 °F 78% 30.16 in 10.0 mi SSW 5.8 mph - N/A   Clear
2:15 PM 69.8 °F 60.8 °F 73% 30.16 in 10.0 mi West 6.9 mph - N/A   Clear
2:35 PM 68.0 °F 60.8 °F 78% 30.16 in 10.0 mi West 6.9 mph - N/A   Clear
2:55 PM 68.0 °F 60.8 °F 78% 30.16 in 10.0 mi WSW 6.9 mph - N/A   Clear
3:15 PM 66.2 °F 60.8 °F 83% 30.15 in 10.0 mi WSW 6.9 mph - N/A   Clear
3:35 PM 68.0 °F 60.8 °F 78% 30.15 in 10.0 mi West 4.6 mph - N/A   Clear
3:55 PM 68.0 °F 60.8 °F 78% 30.15 in 10.0 mi West 3.5 mph - N/A   Clear
4:15 PM 69.8 °F 60.8 °F 73% 30.14 in 10.0 mi Calm Calm - N/A   Clear
4:35 PM 69.8 °F 60.8 °F 73% 30.14 in 10.0 mi West 4.6 mph - N/A   Clear
4:55 PM 69.8 °F 60.8 °F 73% 30.14 in 10.0 mi Calm Calm - N/A   Clear
5:15 PM 69.8 °F 59.0 °F 68% 30.14 in 10.0 mi WNW 4.6 mph - N/A   Clear
5:35 PM 69.8 °F 60.8 °F 73% 30.14 in 10.0 mi West 5.8 mph - N/A   Clear
5:55 PM 68.0 °F 62.6 °F 83% 30.14 in 10.0 mi West 8.1 mph - N/A   Clear
6:15 PM 66.2 °F 60.8 °F 83% 30.15 in 10.0 mi WNW 8.1 mph - N/A   Clear
6:35 PM 66.2 °F 60.8 °F 83% 30.14 in 10.0 mi Calm Calm - N/A   Clear
6:55 PM 66.2 °F 59.0 °F 78% 30.14 in 10.0 mi Calm Calm - N/A   Clear
7:15 PM 66.2 °F 59.0 °F 78% 30.14 in 10.0 mi Calm Calm - N/A   Clear
7:35 PM 64.4 °F 59.0 °F 83% 30.14 in 10.0 mi Calm Calm - N/A   Clear
7:55 PM 64.4 °F 59.0 °F 83% 30.14 in 10.0 mi Calm Calm - N/A   Clear
8:15 PM 62.6 °F 59.0 °F 88% 30.15 in 7.0 mi Calm Calm - N/A   Clear
8:35 PM 62.6 °F 60.8 °F 94% 30.15 in 10.0 mi Calm Calm - N/A   Clear
8:55 PM 62.6 °F 59.0 °F 88% 30.15 in 10.0 mi Calm Calm - N/A   Clear
9:15 PM 62.6 °F 59.0 °F 88% 30.15 in 10.0 mi Calm Calm - N/A   Clear
9:35 PM 60.8 °F 59.0 °F 94% 30.16 in 10.0 mi Calm Calm - N/A   Clear
9:55 PM 59.0 °F 59.0 °F 100% 30.16 in 10.0 mi Calm Calm - N/A   Clear
10:15 PM 59.0 °F 55.4 °F 88% 30.16 in 10.0 mi Calm Calm - N/A   Clear
10:35 PM 59.0 °F 55.4 °F 88% 30.16 in 10.0 mi ESE 3.5 mph - N/A   Clear
10:55 PM 59.0 °F 55.4 °F 88% 30.16 in 10.0 mi Calm Calm - N/A   Clear
11:15 PM 57.2 °F 55.4 °F 94% 30.16 in 10.0 mi Calm Calm - N/A   Clear
11:35 PM 57.2 °F 55.4 °F 94% 30.16 in 10.0 mi Calm Calm - N/A   Clear
11:55 PM 55.4 °F 55.4 °F 100% 30.16 in 10.0 mi East 3.5 mph - N/A   Clear